TimeEDT,TemperatureF,Dew PointF,Humidity,Sea Level PressureIn,VisibilityMPH,Wind Direction,Wind SpeedMPH,Gust SpeedMPH,PrecipitationIn,Events,Conditions,WindDirDegrees,DateUTC
12:53 AM,30.0,19.0,64,29.74,10.0,SW,5.8,-,N/A,,Clear,230,2013-03-21 04:53:00
1:53 AM,28.9,18.0,64,29.74,10.0,SW,4.6,-,N/A,,Clear,230,2013-03-21 05:53:00
2:53 AM,28.9,17.1,61,29.74,10.0,Variable,5.8,-,N/A,,Clear,0,2013-03-21 06:53:00
3:53 AM,28.0,17.1,63,29.75,10.0,WSW,4.6,-,N/A,,Clear,250,2013-03-21 07:53:00
4:53 AM,27.0,15.1,61,29.75,10.0,WSW,4.6,-,N/A,,Clear,240,2013-03-21 08:53:00
5:53 AM,26.1,15.1,63,29.76,10.0,Variable,3.5,-,N/A,,Clear,0,2013-03-21 09:53:00
6:53 AM,19.0,12.9,77,29.77,10.0,Calm,Calm,-,N/A,,Clear,0,2013-03-21 10:53:00
7:53 AM,26.1,15.1,63,29.77,10.0,WSW,3.5,-,N/A,,Clear,250,2013-03-21 11:53:00
8:53 AM,28.9,15.1,56,29.77,10.0,Variable,5.8,-,N/A,,Partly Cloudy,0,2013-03-21 12:53:00
9:53 AM,32.0,15.1,50,29.76,10.0,Calm,Calm,-,N/A,,Overcast,0,2013-03-21 13:53:00
10:53 AM,35.1,12.0,39,29.75,10.0,Variable,4.6,-,N/A,,Overcast,0,2013-03-21 14:53:00
11:53 AM,36.0,10.0,34,29.74,10.0,South,4.6,-,N/A,,Clear,170,2013-03-21 15:53:00
12:53 PM,37.9,12.0,35,29.72,10.0,Calm,Calm,-,N/A,,Mostly Cloudy,0,2013-03-21 16:53:00
1:53 PM,37.0,14.0,39,29.70,10.0,SE,6.9,-,N/A,,Mostly Cloudy,130,2013-03-21 17:53:00
2:53 PM,37.0,10.0,33,29.68,10.0,Variable,4.6,-,N/A,,Overcast,0,2013-03-21 18:53:00
3:53 PM,37.0,12.0,36,29.66,10.0,South,6.9,-,N/A,,Overcast,190,2013-03-21 19:53:00
4:53 PM,37.0,16.0,42,29.64,10.0,South,4.6,-,N/A,,Overcast,170,2013-03-21 20:53:00
5:53 PM,35.1,18.0,50,29.64,10.0,Variable,3.5,-,N/A,,Overcast,0,2013-03-21 21:53:00
6:53 PM,33.1,19.0,56,29.65,10.0,Calm,Calm,-,N/A,,Overcast,0,2013-03-21 22:53:00
7:53 PM,28.9,21.0,72,29.64,10.0,Calm,Calm,-,N/A,,Overcast,0,2013-03-21 23:53:00
8:53 PM,26.1,21.0,81,29.64,10.0,Calm,Calm,-,N/A,,Clear,0,2013-03-22 00:53:00
9:53 PM,24.1,19.9,84,29.63,10.0,Calm,Calm,-,N/A,,Clear,0,2013-03-22 01:53:00
10:53 PM,23.0,19.0,85,29.62,10.0,Calm,Calm,-,N/A,,Clear,0,2013-03-22 02:53:00
11:53 PM,21.0,17.1,85,29.62,10.0,Calm,Calm,-,N/A,,Clear,0,2013-03-22 03:53:00